Location: Coopersdale
(40.3556°N, 78.9372°W)
Time: 19:57:54
(UTC+00:00)

Transit 4A - Pass Details

Date: 21 January 2021
Orbit: 866 x 978 km, 66.8° (Epoch: 26 February)

Event Time Altitude Azimuth Distance (km) Brightness Sun altitude
Rises 10:45:53 0° 324° (NW) 3,612 - -20.3°
Reaches altitude 10° 10:48:35 10° 317° (NW) 2,647 - -19.8°
Exits shadow 10:52:28 33° 287° (WNW) 1,509 8.4 -19.1°
Maximum altitude 10:54:15 40° 250° (WSW) 1,314 8.3 -18.8°
Drops below altitude 10° 10:59:45 10° 182° (S) 2,559 10.3 -17.7°
Sets 11:02:20 0° 175° (S) 3,479 11.1 -17.3°
